Find Starlink 30347

NORAD ID: 57699 Int'l Des: 2023-129 Owner: SPXS Country: US Constellation: starlink operational
LEOCIRCULAR

現在のビュー

3D地球を読み込み中...

About Starlink 30347

Starlink 30347 (NORAD 57699) is a starlink constellation satellite (v2 mini) launched Aug 27, 2023 by SPXS of US. It operates in LEO, CIRCULAR orbit with a mass of 730.00 kg.

Starlink 30347について

説明を読み込み中...

次回通過

Passes for default location (London). Set your location on the main map for personalized predictions.

高度履歴

Loading altitude history...

軌道要素

1 57699U 23129B 26171.47212383 .00007955 00000-0 29839-3 0 9990
2 57699 43.0051 246.2119 0003575 283.9098 76.1356 15.27566136156535
Epoch: Jun 20, 2026 • Age: 44 hours

現在のステータス

高度 487.5 km
速度 7.63 km/s
衛星直下点 40.95°N, 80.85°W
打ち上げ日 Aug 27, 2023
運用期間 2.8 years
タイプ internet

技術仕様

分類 Payload
質量 730.00 kg
乾燥質量 700.00 kg
総質量 730.00 kg
長さ 0.30 m
直径 4.10 m
スパン 29.00 m
形状 Box + pan
製造者 SPXS
バスタイプ Starlink V2M
フェーズステータス In Orbit
所有者/国 SPXS/US

Most Searched